C/2019 K5 ( Young )

Japanese version
Home page
Updated on August 19, 2019

---------------------------------------------------------------------

* Profile

Discovery Date May 25, 2019
Magnitude 17.1 mag
Discoverer David Young (Asteroid Terrestrial-Impact Last Alert System (ATLAS) search program)

* Pictures

* Orbital Elements

Epoch 2019 June 6.0 TT = JDT 2458640.5                                          
T 2019 June 22.74858 TT                                 Williams                
q   2.0350037            (2000.0)            P               Q                  
z  +0.0067253      Peri.  174.91524     +0.99067188     +0.13565146             
 +/-0.0000985      Node   177.18809     -0.13247772     +0.98101983             
e   0.9863140      Incl.   15.31591     -0.03191996     +0.13855961             
H                                                                               
From 210 observations 2019 May 17-Aug. 11, mean residual 0".5.                  

* Finding Charts

* Magnitudes Graph

        m1 = 11.5 + 5 log d + 10.0 log r

---------------------------------------------------------------------

The orbital elements are published on M.P.E.C. 2019-Q17.
The charts are made with StellaNavigator Ver.10 (AstroArts).
The magnitudes graphs are made with Comet for Windows.

---------------------------------------------------------------------

Copyright(C) Seiichi Yoshida (comet@aerith.net). All rights reserved.